Regional Weather Roundup
Issued by NWS

Home | Current Version | Previous Version | Graphics & Text | Print | Product List | Glossary Off
Versions: 1 2 3 4 5 6 7 8 9 10 11 12 13 14 15 16 17 18 19 20 21 22 23 24 25 26 27 28 29 30 31 32 33 34 35 36 37 38 39 40 41 42 43 44 45 46 47 48 49 50

000
ASUS43 KDMX 032107
RWRIA

WEATHER ROUNDUP FOR IOWA
NATIONAL WEATHER SERVICE DES MOINES IA
400 PM CDT MON AUG 03 2015

NOTE: "FAIR" INDICATES FEW OR NO CLOUDS BELOW 12,000 FEET WITH NO
SIGNIFICANT WEATHER AND/OR OBSTRUCTIONS TO VISIBILITY.

* - THESE STATIONS ARE NOT NWS STATIONS...THUS NOT UNDER NWS
QUALITY CONTROL.  THEY ALSO DO NOT REPORT WEATHER SUCH
AS PRECIPITATION OR FOG.

IAZ001>003-012>014-020>022-031>034-043>046-032200-
   NORTHWEST IOWA

CITY           SKY/WX    TMP DP  RH WIND       PRES   REMARKS
CARROLL *      SUNNY     77  55  47 CALM      29.97F
CHEROKEE *     SUNNY     79  57  47 W3        29.98S HX  80
DENISON *      SUNNY     79  59  50 CALM      29.96F HX  80
LE MARS *      MOSUNNY   79  61  53 NW3       29.98F HX  80
ORANGE CITY *  SUNNY     77  57  50 W8        29.98F
SHELDON *      MOSUNNY   77  59  53 NW7       29.97S
SIOUX CITY     MOSUNNY   80  60  50 S5        29.97F HX  81
SPENCER        MOSUNNY   82  54  37 W10G17    29.97F HX  81
STORM LAKE *   SUNNY     77  55  47 NW8       29.99F
$$

IAZ055>058-069>071-079>083-090>094-032200-
   SOUTHWEST IOWA

CITY           SKY/WX    TMP DP  RH WIND       PRES   REMARKS
ATLANTIC *     SUNNY     79  61  53 CALM      29.98S HX  80
AUDUBON *      SUNNY     81  61  50 CALM      29.99S HX  81
CLARINDA *     SUNNY     81  68  65 CALM      29.97F HX  83
COUNCIL BLFS * SUNNY     79  64  61 N6        29.98F HX  81
CRESTON *      PTSUNNY   79  61  53 NE7       29.98S HX  80
HARLAN  *      MOSUNNY   81  66  61 CALM      30.01S HX  83
LAMONI         LGT RAIN  81  65  58 CALM      29.95F HX  83
RED OAK *      CLOUDY    79  64  61 N5        29.97S HX  81
SHENANDOAH *   SUNNY     81  68  65 VRB5      29.96S HX  83
$$

IAZ047>049-059>061-072>074-084-032200-
   CENTRAL IOWA

CITY           SKY/WX    TMP DP  RH WIND       PRES   REMARKS
AMES           SUNNY     79  56  45 N3        29.96S HX  80
ANKENY *       SUNNY     79  52  38 NW3G13    29.95F
CHARITON *     SUNNY     79  59  50 CALM      29.96S HX  80
DES MOINES     MOSUNNY   83  56  39 VRB3      29.94F HX  82
GRINNELL*      SUNNY     77  52  41 W3        29.96F
KNOXVILLE *    SUNNY     79  57  47 VRB3      29.95S HX  80
MARSHALLTOWN   SUNNY     78  55  44 W7        29.95S
PELLA *        SUNNY     81  64  57 N3        29.96S HX  82
PERRY *          N/A     79  57  47 N3        29.96F HX  80
$$

IAZ004>006-015-016-023>025-035-036-032200-
   NORTH CENTRAL IOWA

CITY           SKY/WX    TMP DP  RH WIND       PRES   REMARKS
ALGONA *       SUNNY     79  55  44 VRB7G15   29.96S
CLARION *      SUNNY     77  55  47 NW13      29.96S
ESTHERVILLE    SUNNY     78  54  43 NW9       29.96S
FORT DODGE *   SUNNY     79  57  47 NW6       29.97F HX  80
MASON CITY     MOSUNNY   80  56  43 W12       29.95F HX  80
FOREST CITY *  SUNNY     75  54  46 NW8       29.95S
IOWA FALLS *     N/A     79  55  44 NW7       29.97S
$$

IAZ007>011-017>019-026>030-037>042-050>054-066-032200-
   NORTHEAST IOWA

CITY           SKY/WX    TMP DP  RH WIND       PRES   REMARKS
CEDAR RAPIDS   SUNNY     78  58  49 W10       29.93S
CHARLES CITY * SUNNY     77  55  47 NW15      29.94S
CLINTON *      SUNNY     81  54  39 W14       29.93F HX  80
DECORAH *      SUNNY     75  54  46 VRB6G18   29.91S
DUBUQUE        SUNNY     78  52  40 W14       29.91F
MONTICELLO *   SUNNY     79  54  41 NW10G17   29.91F
OELWEIN *      SUNNY     77  55  47 NW12      29.93F
WATERLOO       SUNNY     79  54  41 NW12G22   29.92F
$$

IAZ064-065-067-068-078-032200-
   EAST CENTRAL IOWA

CITY           SKY/WX    TMP DP  RH WIND       PRES   REMARKS
DAVENPORT      SUNNY     79  55  43 W9        29.92S
IOWA CITY      SUNNY     80  54  40 W6        29.94S HX  80
MT. PLEASANT * SUNNY     84  50  30 W7        29.93F HX  82
MUSCATINE *    SUNNY     82  54  36 W9        29.93S HX  81
QUAD CITIES    SUNNY     82  53  36 VRB6      29.91S HX  81
$$

IAZ062-063-075>077-085>089-095>099-032200-
   SOUTHEAST IOWA

CITY           SKY/WX    TMP DP  RH WIND       PRES   REMARKS
BURLINGTON     SUNNY     82  59  45 W6        29.93F HX  82
FAIRFIELD *    SUNNY     79  57  47 NW7       29.94F HX  80
FORT MADISON * SUNNY     81  61  50 NW3       29.94F HX  81
KEOKUK *       SUNNY     81  63  54 W6        29.92F HAZE    HX  82
OSKALOOSA *      N/A     79  59  50 N6        29.95F HX  80
CENTERVILLE *  SUNNY     79  63  57 N7        29.96F HX  80
OTTUMWA        SUNNY     80  61  52 N7        29.93F HX  81
WASHINGTON *   SUNNY     79  59  50 NW7G13    29.95F HX  80
$$

ABBREVIATIONS USED IN REMARKS
   TC - TEMPERATURES IN CELSIUS
  WCI - WIND CHILL INDEX
   HX - HEAT INDEX
  VSB - VISIBILITY
$$




USA.gov is the U.S. government's official web portal to all federal, state and local government web resources and services.